#timestamp,LO_Frequency,Hit 
1502834415.4,286047002.6,N
1502834435.2,286047000.0,N
1502834455.0,286047000.6,N
1502834455.9,286047000.6,N
1502834475.8,286046998.1,N
1502834495.6,286047002.8,N
1502834515.4,286047002.5,N
1502834535.3,286047000.9,N
1502834555.1,286047003.0,N
1502834556.0,286047003.0,N
1502834575.8,286047005.6,P
1502834595.7,286047001.7,N
1502834615.5,286047003.2,N
1502834635.3,286047003.5,N
1502834655.2,286047001.3,N
1502834675.9,286047003.9,N
1502834695.7,286047003.9,N
1502834715.6,286047003.8,N
1502834735.4,286047003.9,N
1502834755.2,286047004.3,P
1502834775.1,286047000.2,N
1502834776.0,286047000.2,N
1502834795.8,286047000.9,N
1502834815.6,286047000.5,N
1502834835.5,286047002.3,N
1502834855.3,286047002.5,N
1502834875.1,286047002.2,N
1502834895.9,286047002.7,N
1502834915.7,286047002.6,N
1502834935.5,286047003.1,N
1502834955.4,286047005.5,P
1502834975.2,286047002.5,N
1502834995.0,286047002.5,N
1502834995.9,286047002.5,N
1502835015.8,286047000.4,N
1502835035.6,286047000.1,N
1502835055.4,286047000.0,N
1502835075.2,286047002.8,N
1502835095.1,286047000.9,N
1502835096.0,286047000.9,N
1502835115.8,286047000.0,N
1502835135.6,286047000.9,N
1502835155.5,286046998.7,N
1502835175.3,286046996.5,N
1502835195.1,286046998.6,N
1502835215.9,286047002.8,N
1502835235.7,286047002.3,N
1502835255.5,286047001.6,N
1502835275.4,286047001.3,N
1502835295.2,286047003.7,N
1502835315.0,286047002.2,N
1502835315.9,286047002.2,N
1502835335.8,286047001.6,N
1502835355.6,286047003.0,N
1502835375.4,286047004.9,N
1502835395.2,286047002.9,N
1502835415.1,286047004.1,N
1502835416.0,286047004.1,N
1502835435.8,286047001.3,N
1502835455.6,286047003.4,N
1502835475.5,286047001.8,N
1502835495.3,286047003.9,N
1502835515.1,286047003.4,N
1502835535.9,286047006.0,P
1502835555.7,286047003.9,N
1502835575.5,286047006.0,P
1502835595.4,286047003.0,N
1502835615.2,286047003.6,N
1502835635.0,286047004.0,N
1502835635.9,286047004.0,N
1502835655.8,286047003.5,N
1502835675.6,286047003.1,N
1502835695.4,286047007.6,P
1502835715.3,286047001.7,N
1502835735.1,286047002.5,N
1502835755.8,286047002.4,N
1502835775.7,286047002.6,N
1502835795.5,286047002.5,N
1502835815.3,286047001.7,N
1502835835.2,286047002.2,N
1502835855.9,286046999.9,N
1502835875.7,286047000.2,N
1502835895.6,286047002.7,N
1502835915.4,286047001.9,N
1502835935.2,286047002.7,N
1502835955.0,286047002.2,N
1502835955.9,286047002.2,N
1502835975.8,286047001.8,N
1502835995.6,286047001.7,N
1502836015.4,286047001.3,N
1502836035.3,286046999.9,N
1502836055.1,286047002.4,N
1502836075.8,286047001.7,N
1502836095.7,286047002.7,N
1502836115.5,286047001.7,N
1502836135.3,286047003.9,N
1502836155.2,286047005.5,P
1502836175.9,286047003.7,N
1502836195.7,286047002.0,N
1502836215.6,286047001.5,N
1502836235.4,286047002.0,N
1502836255.2,286047002.1,N
1502836275.0,286046999.9,N
1502836276.0,286046999.9,N
1502836295.8,286047000.4,N
1502836315.6,286047000.3,N
1502836335.4,286046999.7,N
1502836355.3,286047000.3,N
1502836375.1,286047000.7,N
1502836395.8,286047003.6,N
1502836415.7,286047003.8,N
1502836435.5,286047003.8,N
1502836455.3,286047002.9,N
1502836475.2,286047005.3,P
1502836495.0,286047003.9,N
1502836495.9,286047003.9,N
1502836515.8,286047004.0,P
1502836535.6,286046998.7,P
1502836555.4,286046998.2,N
1502836575.2,286046998.6,N
1502836595.1,286046998.6,N
1502836596.0,286046998.6,N
1502836615.8,286047001.2,N
1502836635.6,286047001.0,N
1502836655.5,286046998.1,N
1502836675.3,286046998.9,N
1502836695.1,286047001.0,N
1502836715.9,286047000.7,N
1502836735.7,286047002.3,N
1502836755.5,286047005.5,N
1502836775.4,286047005.2,N
1502836795.2,286047004.7,N
1502836815.0,286047006.0,N
1502836815.9,286047006.0,N
1502836835.8,286047006.8,N
1502836855.6,286047005.1,N
1502836875.4,286047003.5,N
1502836895.2,286047003.0,N
1502836915.1,286047003.9,N
1502836916.0,286047003.9,N
1502836935.8,286047002.5,N
1502836955.6,286047002.3,N
1502836975.5,286047000.1,N
1502836995.3,286047002.6,N
1502837015.1,286047002.2,N
1502837035.9,286047002.2,N
1502837055.7,286047002.8,N
1502837075.5,286047002.0,N
1502837095.4,286047000.1,N
1502837115.2,286047002.0,N
1502837135.0,286047004.3,N
1502837135.9,286047004.3,N
1502837155.8,286047004.6,N
1502837175.6,286047006.8,P
1502837195.4,286047003.2,N
1502837215.3,286047004.1,N
1502837235.1,286046999.7,N
1502837236.0,286046999.7,N
1502837255.8,286047003.6,N
1502837275.7,286047007.5,P
1502837295.5,286047003.2,N
1502837315.3,286047003.5,N
1502837335.2,286047003.0,N
1502837355.9,286047005.5,P
1502837375.7,286047002.1,N
1502837395.6,286046999.9,N
1502837415.4,286047002.1,N
1502837435.2,286047002.0,N
1502837455.1,286047002.7,N
1502837456.0,286047002.7,N
1502837475.8,286047002.7,N
1502837495.6,286047002.5,N
1502837515.5,286047002.8,N
1502837535.3,286047000.7,N
1502837555.1,286046998.1,N
1502837575.9,286047000.2,N
1502837595.7,286046998.5,N
1502837615.5,286046996.7,N
1502837635.3,286046999.0,N
1502837655.2,286047000.8,N
1502837675.0,286047000.6,N
1502837675.9,286047000.6,N
1502837695.7,286047002.2,N
1502837715.6,286047001.3,N
1502837735.4,286047002.9,N
1502837755.2,286047001.8,N
1502837775.1,286047001.9,N
1502837776.0,286047001.9,N
1502837795.8,286047003.0,N
1502837815.6,286047007.4,P
1502837835.5,286047005.5,N
1502837855.3,286047007.1,N
1502837875.2,286047007.6,P
1502837895.9,286047000.9,N
1502837915.7,286047000.9,N
1502837935.5,286046998.6,N
1502837955.4,286047000.3,N
1502837975.2,286046999.0,N
1502837995.0,286046995.1,N
1502837995.9,286046995.1,N
